Regional Weather Roundup
Issued by NWS

Home | Current Version | Previous Version | Graphics & Text | Print | Product List | Glossary On
Versions: 1 2 3 4 5 6 7 8 9 10 11 12 13 14 15 16 17 18 19 20 21 22 23 24 25 26 27 28 29 30 31 32 33 34 35 36 37 38 39 40 41 42 43 44 45 46 47 48 49 50
000
ASUS43 KMKX 070321
RWRWI

WISCONSIN REGIONAL WEATHER ROUNDUP
NATIONAL WEATHER SERVICE MILWAUKEE/SULLIVAN WI
1000 PM CDT MON JUL 06 2015

NOTE: "FAIR" INDICATES FEW OR NO CLOUDS BELOW 12,000 FEET WITH NO
SIGNIFICANT WEATHER AND/OR OBSTRUCTIONS TO VISIBILITY.

WIZ001-002-006>008-014>016-023>028-070400-
NORTHWEST WISCONSIN

CITY           SKY/WX    TMP DP  RH WIND       PRES   REMARKS
SUPERIOR ARPT  CLOUDY    58  48  71 N6        30.03R
ASHLAND        CLOUDY    60  54  80 NW8       30.00R
HAYWARD        CLOUDY    61  52  72 N6        30.01R
SIREN          CLEAR     58  48  68 NW8       30.04R
CUMBERLAND     MOCLDY    61  50  67 NW14      29.99R
RICE LAKE      MOCLDY    62  53  72 NW7       30.00R
CHETEK         MOCLDY    63  59  87 N6        29.97R FOG
LADYSMITH      PTCLDY    58  56  92 CALM      29.99R FOG
EAU CLAIRE     CLOUDY    59  57  93 NW3       29.96R FOG
MENOMONIE      MOCLDY    63  59  87 CALM      29.98R FOG
NEW RICHMOND   PTCLDY    60  49  68 NW13G20   30.02R
OSCEOLA        CLOUDY    61  49  64 NW12G17   30.04S
$$

WIZ003>005-009-010-017-018-070400-
NORTH CENTRAL WISCONSIN

CITY           SKY/WX    TMP DP  RH WIND       PRES   REMARKS
MANITOWISH WTR CLOUDY    55  55 100 NW5       29.97R FOG
ARBOR VITAE    MOCLDY    57  55  93 N6        29.96R FOG
WOODRUFF       MOCLDY    57  55  93 N6        29.96R FOG
RHINELANDER    CLOUDY    58  55  90 N6        29.95R FOG
EAGLE RIVER    CLOUDY    57  55  94 N8        29.94R FOG
LAND O LAKES   CLOUDY    57  55  95 N8        29.95R FOG
PHILLIPS       CLEAR     55  54  99 CALM      29.96S FOG
TOMAHAWK       PTCLDY    56  54  91 NW5       29.96R FOG
MEDFORD        PTCLDY    57  55  95 N7        29.96R FOG
MERRILL        CLOUDY    60  57  91 N6        29.95R FOG
$$

WIZ029-030-035-036-043>047-070400-
CENTRAL WISCONSIN

CITY           SKY/WX    TMP DP  RH WIND       PRES   REMARKS
WAUSAU         CLOUDY    62  56  80 N9        29.92R HAZE
MOSINEE        CLOUDY    61  57  88 N10       29.94R FOG
MARSHFIELD     CLOUDY    61  54  77 N12       29.94R HAZE
STEVENS POINT  CLOUDY    59  56  87 N8        29.93R
WAUPACA        CLOUDY    65  61  88 N10       29.89R
WAUTOMA        CLOUDY    64  63  94 N9        29.90R
WISC RAPIDS    CLOUDY    63  55  75 N16       29.94R HAZE
CAMP DOUGLAS   CLOUDY    63  63 100 NW10      29.93R
$$

WIZ011>013-019>022-031-037>040-048>050-070400-
NORTHEAST WISCONSIN

CITY           SKY/WX    TMP DP  RH WIND       PRES   REMARKS
ANTIGO         CLOUDY    58  56  92 N14       29.93R FOG
SHAWANO        CLOUDY    64  58  82 N12       29.89R
OCONTO         CLOUDY    59  59 100 N12       29.86R
STURGEON BAY   CLOUDY    61  55  82 N18G25    29.87R
GREEN BAY      CLOUDY    63  59  87 N15       29.86R
MANITOWOC      CLOUDY    74  71  91 MISG      29.80S
APPLETON       DRIZZLE   63  63 100 N18G25    29.86R
CLINTONVILLE   CLOUDY    63  55  77 N12       29.88R
OSHKOSH        LGT RAIN  66  62  87 N15G24    29.84R
$$

WIZ032>034-041-042-053>061-070400-
SOUTHWEST WISCONSIN

CITY           SKY/WX    TMP DP  RH WIND       PRES   REMARKS
LA CROSSE      CLOUDY    63  57  81 N9        29.96R HAZE
SPARTA         PTCLDY    61  55  79 N5        29.96R HAZE
VIROQUA        MOCLDY    61  57  86 N16       29.95R
BOSCOBEL       CLOUDY    66  60  81 N5        29.93R
PRAIRIE DU CHI MOCLDY    66  55  67 N10G17    29.93R
PLATTEVILLE    CLOUDY    66  64  93 N15G23    29.90R
$$

WIZ056-057-062-063-064-067-068-070400-
SOUTH CENTRAL WISCONSIN

CITY           SKY/WX    TMP DP  RH WIND       PRES   REMARKS
REEDSBURG      CLOUDY    63  60  93 NW9G16    29.90R
BARABOO/DELLS  CLOUDY    63  60  90 N9G18     29.90R
LONE ROCK      CLOUDY    65  60  84 NW12      29.91R
MINERAL POINT  CLOUDY    64  63  94 NW18      29.91R
MADISON        RAIN      68  65  90 N18G28    29.84R FOG
MIDDLETON      CLOUDY    68  67  95 NW12G17   29.86R
WATERTOWN      LGT RAIN  73  73 100 SW3       29.83R
MONROE         HVY RAIN  70  70 100 W14       29.87R
JANESVILLE     RAIN      77  73  88 SW14      29.84R
$$

WIZ051-052-058>065-066-070>072-070400-
SOUTHEAST WISCONSIN

CITY           SKY/WX    TMP DP  RH WIND       PRES   REMARKS
MILWAUKEE      LGT RAIN  75  71  87 SW9       29.82S
WAUKESHA       CLOUDY    72  70  94 SW6       29.84R
MILWAUKEE/TIMM LGT RAIN  73  70  88 S8        29.82F
RACINE         CLOUDY    76  68  76 SW13G21   29.84S
BURLINGTON     CLOUDY    72  68  87 SW9       29.84R
KENOSHA        LGT RAIN  74  69  85 SW9       29.84R
FOND DU LAC    LGT RAIN  72  69  90 NW18G26   29.83R
SHEBOYGAN      CLOUDY    75  69  81 SW7       29.80S
WEST BEND      RAIN      73  68  83 SW3       29.82S
JUNEAU         CLOUDY    72  71  94 SW6       29.84S
$$

LSZ147-162-070400-
LAKE SUPERIOR

STATION/POSITION TIME  TEMP    WIND        PRES    WAVE
                       AIR SEA DIR/SP/G            HT/PER
                 (UTC) (F)     (DEG/KT/KT) (MB)    (FT/S)
W MID LAKE BUOY  0250   49 39  330/ 12/ 14 1014.6R   0
DEVILS ISLAND    0300   59     350/ 20/ 23 1015.8R
PORT WING        0200   62     340/ 12/ 14 1014.9R
SAXON HARBOR     0200   59        CALM     1013.9
$$

LMZ867-665-643>646-070400-
LAKE MICHIGAN

STATION/POSITION TIME  TEMP    WIND        PRES    WAVE
                       AIR SEA DIR/SP/G            HT/PER
                 (UTC) (F)     (DEG/KT/KT) (MB)    (FT/S)
CHAMBERS ISLAND  0200   60     350/ 21/ 24 1009.5R
S GREEN BAY BUOY 0130   73 70  230/ 16/ 21 1009.3R
N MID LAKE BUOY  0250   56 57   40/  6/ 12 1009.6R   3/ 5
NORTHPORT PIER   0200   60      10/ 13/ 17 1009.5R
SISTER BAY       0229   58      10/ 13/ 17   N/A
ALGOMA LAKESHORE 0211             CALM       N/A
KEWAUNEE LAKESHO 0300   65     320/ 12/ 17 1009.3R
SHEBOYGAN LAKESH 0300   71     190/  7/  9 1009.1F
PORT WASHINGTON  0200   71     230/  3/  5 1009.8S
ATWATER BUOY     0300   70 59  230/  6/  8 1011.0S
MILWAUKEE LAKESH 0300   72     200/  8/  8   N/A
KENOSHA   LAKESH 0300   77     220/ 11/ 17 1009.8S
$$

TC  - TEMPERATURE IN CELSIUS
VSB - VISIBILITY IN STATUTE MILES
WCI - WIND CHILL INDEX
HX  - HEAT INDEX




USA.gov is the U.S. government's official web portal to all federal, state and local government web resources and services.